UAE73 OMDB-LFPG

Flight info

Callsign UAE73
Flight time N/A
Altitude 34000
Route RIDAP M557 TUMAK L602 GADSI M860 SEPTU DCT VUSEB M860 NINVA UM860 ODALI UL852 EKSUK/N0473F360 UL852 NEGEM T746 ARGES DCT MOPUG DCT EBORO DCT OKORA DCT SUNIS DCT ERKIR L608 KPT L856 RAVED Y112 HOC/N0467F370 DCT MOROK/N0461F350 DCT PENDU DCT JAVVU DCT GIVRI/N0464F360 DCT TINIL
Aircraft B77W/H-SDE1E2E3FGHIJ2J3J4J5M1RWXY/LB1D1

Departure

Time 2026-04-30 20:19
Airport Dubai International Airport (OMDB)

Arrival

Time N/A
Airport Charles de Gaulle International Airport (LFPG)
Time Latitude Longitude Altitude Speed Heading
2026-04-30 19:59 25.24264 55.37521 27 ft 0 kts 211°
2026-04-30 20:11 25.24289 55.37538 26 ft 2 kts 211°
2026-04-30 20:11 25.24303 55.37547 25 ft 2 kts 211°
2026-04-30 20:11 25.24316 55.37557 24 ft 2 kts 211°
2026-04-30 20:12 25.24348 55.37560 25 ft 2 kts 151°
2026-04-30 20:12 25.24356 55.37553 25 ft 0 kts 123°
2026-04-30 20:14 25.24338 55.37582 27 ft 11 kts 123°
2026-04-30 20:15 25.24293 55.37657 27 ft 12 kts 123°
2026-04-30 20:15 25.24254 55.37723 27 ft 10 kts 117°
2026-04-30 20:15 25.24277 55.37786 27 ft 10 kts 37°
2026-04-30 20:15 25.24330 55.37823 27 ft 4 kts 32°
2026-04-30 20:16 25.24335 55.37827 27 ft 0 kts 32°
2026-04-30 20:16 25.24340 55.37830 27 ft 6 kts 32°
2026-04-30 20:16 25.24412 55.37882 27 ft 14 kts 33°
2026-04-30 20:16 25.24493 55.37943 27 ft 14 kts 36°
2026-04-30 20:17 25.24573 55.38005 27 ft 14 kts 34°
2026-04-30 20:17 25.24618 55.38038 27 ft 6 kts 33°
2026-04-30 20:17 25.24650 55.38061 27 ft 6 kts 33°
2026-04-30 20:17 25.24703 55.38099 27 ft 10 kts 31°
2026-04-30 20:18 25.24757 55.38115 27 ft 8 kts 341°
2026-04-30 20:18 25.24791 55.38059 27 ft 14 kts 298°
2026-04-30 20:18 25.24902 55.37857 27 ft 49 kts 300°
2026-04-30 20:18 25.25193 55.37331 27 ft 113 kts 301°
2026-04-30 20:19 25.25704 55.36412 27 ft 166 kts 301°
2026-04-30 20:19 25.26137 55.35607 32 ft 193 kts 300°
2026-04-30 20:19 25.27142 55.33877 402 ft 207 kts 301°
2026-04-30 20:19 25.27901 55.32501 891 ft 208 kts 301°
2026-04-30 20:20 25.28653 55.31133 1476 ft 214 kts 302°
2026-04-30 20:20 25.29470 55.29658 1699 ft 234 kts 302°
2026-04-30 20:20 25.30375 55.28126 2279 ft 240 kts 307°
2026-04-30 20:20 25.31341 55.26622 2957 ft 242 kts 307°
2026-04-30 20:21 25.32310 55.25116 3571 ft 246 kts 307°
2026-04-30 20:21 25.33308 55.23561 4131 ft 252 kts 306°
2026-04-30 20:21 25.34335 55.21952 4681 ft 259 kts 306°
2026-04-30 20:21 25.35355 55.20297 5255 ft 262 kts 298°
2026-04-30 20:22 25.35845 55.18339 5707 ft 270 kts 272°
2026-04-30 20:22 25.35792 55.16256 6247 ft 274 kts 269°
2026-04-30 20:22 25.35709 55.14143 6888 ft 275 kts 268°
2026-04-30 20:22 25.35628 55.12110 7572 ft 273 kts 267°
2026-04-30 20:23 25.35545 55.10006 8223 ft 274 kts 267°
2026-04-30 20:23 25.35464 55.07897 8863 ft 275 kts 266°
2026-04-30 20:23 25.35385 55.05804 9508 ft 276 kts 266°
2026-04-30 20:23 25.35305 55.03678 10091 ft 280 kts 266°
2026-04-30 20:24 25.35222 55.01465 10289 ft 299 kts 266°
2026-04-30 20:24 25.35136 54.99147 10440 ft 319 kts 266°
2026-04-30 20:24 25.35043 54.96620 10601 ft 339 kts 266°
2026-04-30 20:24 25.34945 54.93950 10859 ft 355 kts 266°
2026-04-30 20:25 25.35385 54.88446 11727 ft 369 kts 286°
2026-04-30 20:25 25.36234 54.85736 12348 ft 375 kts 286°
2026-04-30 20:26 25.37852 54.80295 14049 ft 374 kts 285°
2026-04-30 20:26 25.39434 54.74780 15440 ft 379 kts 284°
2026-04-30 20:26 25.40230 54.71988 16117 ft 382 kts 284°
2026-04-30 20:27 25.41855 54.66355 17550 ft 387 kts 284°
2026-04-30 20:27 25.43507 54.60644 18824 ft 392 kts 284°
2026-04-30 20:28 25.45192 54.54908 19995 ft 397 kts 284°
2026-04-30 20:28 25.46915 54.49058 21180 ft 402 kts 283°
2026-04-30 20:29 25.48657 54.43121 22271 ft 409 kts 283°
2026-04-30 20:30 25.51309 54.34061 23794 ft 416 kts 283°
2026-04-30 20:30 25.53990 54.24877 25023 ft 423 kts 283°
2026-04-30 20:31 25.56765 54.15482 26136 ft 432 kts 283°
2026-04-30 20:32 25.59588 54.05918 27218 ft 439 kts 283°
2026-04-30 20:32 25.61400 53.99564 27900 ft 443 kts 282°
2026-04-30 20:33 25.62320 53.96301 28226 ft 445 kts 282°
2026-04-30 20:33 25.64175 53.89728 28905 ft 448 kts 282°
2026-04-30 20:33 25.65107 53.86434 29234 ft 449 kts 282°
2026-04-30 20:34 25.66665 53.80920 29660 ft 453 kts 282°
2026-04-30 20:34 25.68857 53.73157 30231 ft 455 kts 282°
2026-04-30 20:35 25.69800 53.69808 30535 ft 454 kts 282°
2026-04-30 20:35 25.70739 53.66470 30833 ft 453 kts 282°
2026-04-30 20:35 25.72609 53.59803 31395 ft 453 kts 282°
2026-04-30 20:36 25.73227 53.57595 31579 ft 452 kts 282°
2026-04-30 20:36 25.74161 53.54262 31873 ft 452 kts 282°
2026-04-30 20:36 25.76328 53.46545 32596 ft 450 kts 282°
2026-04-30 20:37 25.77263 53.43242 32894 ft 449 kts 282°
2026-04-30 20:37 25.78198 53.39936 33143 ft 449 kts 282°
2026-04-30 20:37 25.78829 53.37704 33318 ft 449 kts 282°
2026-04-30 20:37 25.80065 53.33320 33661 ft 449 kts 282°
2026-04-30 20:38 25.80998 53.30004 33777 ft 452 kts 282°
2026-04-30 20:38 25.82870 53.23346 33843 ft 451 kts 282°
2026-04-30 20:39 25.85741 53.14663 33847 ft 452 kts 288°
2026-04-30 20:40 25.89641 53.05198 33858 ft 451 kts 288°
2026-04-30 20:40 25.92203 52.98908 33864 ft 452 kts 288°
2026-04-30 20:41 25.96497 52.88291 33858 ft 455 kts 288°
2026-04-30 20:41 25.98670 52.82911 33862 ft 456 kts 288°
2026-04-30 20:42 26.01246 52.76528 33859 ft 456 kts 288°
2026-04-30 20:43 26.05419 52.66969 33871 ft 459 kts 291°
2026-04-30 20:43 26.08321 52.60654 33856 ft 458 kts 290°
2026-04-30 20:44 26.12562 52.51230 33858 ft 456 kts 290°
2026-04-30 20:45 26.18262 52.38656 33865 ft 454 kts 290°
2026-04-30 20:45 26.21099 52.32379 33869 ft 453 kts 290°
2026-04-30 20:46 26.26585 52.19818 33869 ft 452 kts 289°
2026-04-30 20:47 26.30666 52.10359 33869 ft 452 kts 289°
2026-04-30 20:48 26.34731 52.00892 33883 ft 451 kts 289°
2026-04-30 20:48 26.37368 51.94679 33872 ft 449 kts 287°
2026-04-30 20:49 26.39578 51.88226 33877 ft 444 kts 283°
2026-04-30 20:50 26.42809 51.78532 33873 ft 445 kts 284°
2026-04-30 20:50 26.44996 51.72080 33896 ft 445 kts 284°
2026-04-30 20:51 26.47166 51.65660 33881 ft 445 kts 284°
2026-04-30 20:51 26.50416 51.55970 33874 ft 444 kts 284°
2026-04-30 20:52 26.52555 51.49500 33882 ft 444 kts 284°
2026-04-30 20:53 26.55753 51.39835 33882 ft 445 kts 284°
2026-04-30 20:53 26.57895 51.33355 33895 ft 445 kts 284°
2026-04-30 20:54 26.61106 51.23637 33880 ft 444 kts 284°
2026-04-30 20:55 26.64307 51.13945 33897 ft 443 kts 284°
2026-04-30 20:55 26.66420 51.07530 33883 ft 442 kts 284°
2026-04-30 20:56 26.69572 50.97906 33904 ft 442 kts 283°
2026-04-30 20:57 26.72674 50.88224 33892 ft 440 kts 283°
2026-04-30 20:57 26.74718 50.81840 33899 ft 438 kts 283°
2026-04-30 20:58 26.77792 50.72225 33899 ft 437 kts 283°
2026-04-30 20:58 26.80315 50.65992 33912 ft 445 kts 292°
2026-04-30 20:59 26.85660 50.57420 33905 ft 455 kts 301°
2026-04-30 21:00 26.93821 50.46622 33907 ft 456 kts 304°
2026-04-30 21:01 27.00378 50.38891 33918 ft 456 kts 304°
2026-04-30 21:02 27.06861 50.31154 33912 ft 455 kts 303°
2026-04-30 21:02 27.11172 50.25950 33912 ft 455 kts 303°
2026-04-30 21:03 27.15537 50.20780 33924 ft 460 kts 306°
2026-04-30 21:03 27.20573 50.16195 33924 ft 471 kts 314°
2026-04-30 21:04 27.25844 50.11910 33917 ft 470 kts 314°
2026-04-30 21:04 27.33740 50.05383 33917 ft 469 kts 313°
2026-04-30 21:05 27.38955 50.00982 33918 ft 467 kts 312°
2026-04-30 21:05 27.44017 49.96519 33927 ft 466 kts 311°
2026-04-30 21:06 27.49078 49.92036 33964 ft 466 kts 311°
2026-04-30 21:06 27.54192 49.87527 33933 ft 466 kts 311°
2026-04-30 21:07 27.59299 49.83031 33927 ft 465 kts 311°
2026-04-30 21:07 27.64396 49.78539 33931 ft 465 kts 311°
2026-04-30 21:08 27.69447 49.74078 33932 ft 464 kts 311°
2026-04-30 21:08 27.74527 49.69587 33929 ft 464 kts 311°
2026-04-30 21:09 27.79607 49.65088 33928 ft 464 kts 310°
2026-04-30 21:09 27.84667 49.60567 33955 ft 464 kts 310°
2026-04-30 21:10 27.89702 49.56056 33945 ft 465 kts 310°
2026-04-30 21:10 27.94776 49.51510 33943 ft 466 kts 310°
2026-04-30 21:11 27.99857 49.46954 33937 ft 466 kts 310°
2026-04-30 21:11 28.04933 49.42385 33948 ft 467 kts 310°
2026-04-30 21:12 28.09960 49.37805 33946 ft 467 kts 310°
2026-04-30 21:12 28.15015 49.33188 33943 ft 467 kts 310°
2026-04-30 21:13 28.20075 49.28567 33970 ft 468 kts 309°
2026-04-30 21:13 28.25143 49.23935 33952 ft 467 kts 309°
2026-04-30 21:14 28.30198 49.19294 33944 ft 467 kts 309°
2026-04-30 21:14 28.35195 49.14674 33975 ft 467 kts 309°
2026-04-30 21:15 28.40268 49.10052 33953 ft 472 kts 312°
2026-04-30 21:15 28.45739 49.05834 33954 ft 476 kts 314°
2026-04-30 21:16 28.51258 49.01671 33942 ft 476 kts 314°
2026-04-30 21:16 28.56666 48.97552 33953 ft 475 kts 314°
2026-04-30 21:17 28.62144 48.93350 33948 ft 475 kts 314°
2026-04-30 21:17 28.67617 48.89144 33947 ft 474 kts 314°
2026-04-30 21:18 28.73042 48.84970 33951 ft 475 kts 314°
2026-04-30 21:18 28.78515 48.80756 33950 ft 474 kts 314°
2026-04-30 21:19 28.83979 48.76552 33948 ft 474 kts 314°
2026-04-30 21:19 28.89447 48.72360 33982 ft 474 kts 314°
2026-04-30 21:20 28.94912 48.68165 33959 ft 473 kts 314°
2026-04-30 21:20 29.00318 48.64007 33950 ft 472 kts 314°
2026-04-30 21:21 29.05754 48.59819 33953 ft 471 kts 314°
2026-04-30 21:22 29.13887 48.53541 33955 ft 470 kts 314°
2026-04-30 21:23 29.24681 48.45190 33962 ft 470 kts 314°
2026-04-30 21:23 29.32805 48.38891 33964 ft 470 kts 314°
2026-04-30 21:24 29.38213 48.34691 33982 ft 469 kts 314°
2026-04-30 21:24 29.43589 48.30529 33965 ft 471 kts 315°
2026-04-30 21:25 29.52165 48.24819 33961 ft 476 kts 319°
2026-04-30 21:26 29.60798 48.19201 33970 ft 474 kts 319°
2026-04-30 21:27 29.69331 48.13582 33949 ft 472 kts 318°
2026-04-30 21:27 29.75024 48.09818 33968 ft 472 kts 319°
2026-04-30 21:28 29.83540 48.04186 33953 ft 469 kts 319°
2026-04-30 21:29 29.91918 47.98632 33965 ft 468 kts 319°
2026-04-30 21:29 30.00225 47.92880 33951 ft 455 kts 312°
2026-04-30 21:30 30.04936 47.88180 33956 ft 442 kts 304°
2026-04-30 21:31 30.14872 47.74932 33957 ft 439 kts 301°
2026-04-30 21:32 30.20861 47.66909 33966 ft 440 kts 301°
2026-04-30 21:32 30.24871 47.61541 33963 ft 441 kts 301°
2026-04-30 21:33 30.30856 47.53518 33963 ft 441 kts 301°
2026-04-30 21:34 30.34859 47.48142 33958 ft 441 kts 301°
2026-04-30 21:34 30.40849 47.40082 33959 ft 439 kts 301°
2026-04-30 21:35 30.44799 47.34757 33971 ft 438 kts 301°
2026-04-30 21:35 30.48768 47.29397 33974 ft 438 kts 301°
2026-04-30 21:36 30.52730 47.24041 33969 ft 437 kts 301°
2026-04-30 21:37 30.59074 47.16398 33965 ft 450 kts 311°
2026-04-30 21:37 30.61518 47.14129 33973 ft 450 kts 311°
2026-04-30 21:37 30.66420 47.09609 33971 ft 450 kts 311°
2026-04-30 21:38 30.71304 47.05078 33970 ft 449 kts 311°
2026-04-30 21:38 30.76176 47.00527 33996 ft 449 kts 311°
2026-04-30 21:39 30.80969 46.96035 33980 ft 450 kts 311°
2026-04-30 21:39 30.85837 46.91468 33969 ft 449 kts 311°
2026-04-30 21:40 30.90702 46.86896 33992 ft 449 kts 312°
2026-04-30 21:40 30.95571 46.82315 33979 ft 450 kts 312°
2026-04-30 21:41 31.00409 46.77758 33958 ft 451 kts 312°
2026-04-30 21:41 31.05281 46.73163 33992 ft 451 kts 312°
2026-04-30 21:42 31.10161 46.68553 33974 ft 452 kts 312°
2026-04-30 21:42 31.15048 46.63931 33989 ft 452 kts 312°
2026-04-30 21:43 31.19903 46.59333 34005 ft 452 kts 312°
2026-04-30 21:43 31.24794 46.54694 33984 ft 453 kts 312°
2026-04-30 21:44 31.29690 46.50045 33983 ft 454 kts 312°
2026-04-30 21:44 31.34587 46.45388 34018 ft 454 kts 313°
2026-04-30 21:45 31.39491 46.40717 33996 ft 455 kts 313°
2026-04-30 21:45 31.44365 46.36070 33978 ft 455 kts 313°
2026-04-30 21:46 31.49266 46.31389 34028 ft 455 kts 313°
2026-04-30 21:46 31.54170 46.26698 34009 ft 455 kts 313°
2026-04-30 21:47 31.59072 46.22004 34002 ft 455 kts 313°
2026-04-30 21:47 31.63973 46.17303 34026 ft 455 kts 313°
2026-04-30 21:48 31.68837 46.12630 34019 ft 455 kts 313°
2026-04-30 21:48 31.73733 46.07923 34018 ft 455 kts 313°
2026-04-30 21:49 31.78600 46.03179 34030 ft 454 kts 312°
2026-04-30 21:49 31.83378 45.98421 34022 ft 454 kts 312°
2026-04-30 21:50 31.88168 45.93642 34017 ft 454 kts 312°
2026-04-30 21:50 31.92989 45.88837 34030 ft 455 kts 312°
2026-04-30 21:51 31.97820 45.84022 34011 ft 455 kts 312°
2026-04-30 21:51 32.02650 45.79202 34017 ft 455 kts 312°
2026-04-30 21:52 32.07449 45.74406 34011 ft 455 kts 313°
2026-04-30 21:52 32.12276 45.69576 34006 ft 455 kts 313°
2026-04-30 21:53 32.17099 45.64742 34015 ft 455 kts 313°
2026-04-30 21:53 32.21922 45.59900 34020 ft 455 kts 313°
2026-04-30 21:54 32.26742 45.55054 34014 ft 455 kts 313°
2026-04-30 21:54 32.31525 45.50239 34035 ft 454 kts 313°
2026-04-30 21:55 32.36338 45.45386 34019 ft 455 kts 313°
2026-04-30 21:55 32.41163 45.40514 34014 ft 456 kts 313°
2026-04-30 21:56 32.45992 45.35630 34020 ft 457 kts 313°
2026-04-30 21:56 32.50822 45.30740 34022 ft 457 kts 313°
2026-04-30 21:57 32.55673 45.25927 34022 ft 460 kts 317°
2026-04-30 21:57 32.61004 45.21643 34012 ft 464 kts 321°
2026-04-30 21:58 32.66406 45.17428 34000 ft 465 kts 320°
2026-04-30 21:58 32.71759 45.13214 34021 ft 464 kts 320°
2026-04-30 21:59 32.77133 45.08949 34024 ft 465 kts 321°
2026-04-30 22:00 32.85207 45.02521 34013 ft 466 kts 321°
2026-04-30 22:00 32.93189 44.96155 34021 ft 467 kts 321°
2026-04-30 22:01 32.98577 44.91851 34013 ft 466 kts 321°
2026-04-30 22:01 33.03961 44.87543 34017 ft 466 kts 321°
2026-04-30 22:02 33.09338 44.83233 34014 ft 466 kts 321°
2026-04-30 22:02 33.14713 44.78920 34031 ft 465 kts 321°
2026-04-30 22:03 33.20180 44.74838 34015 ft 470 kts 328°
2026-04-30 22:03 33.26280 44.71882 34017 ft 478 kts 339°
2026-04-30 22:04 33.32747 44.69921 34021 ft 480 kts 341°
2026-04-30 22:05 33.42504 44.67151 33999 ft 481 kts 341°
2026-04-30 22:05 33.48957 44.65272 33998 ft 481 kts 341°
2026-04-30 22:06 33.55450 44.63354 34002 ft 481 kts 341°
2026-04-30 22:06 33.65192 44.60463 34000 ft 481 kts 341°
2026-04-30 22:07 33.71691 44.58533 33991 ft 481 kts 341°
2026-04-30 22:07 33.78139 44.56616 33990 ft 480 kts 341°
2026-04-30 22:08 33.84616 44.54687 34000 ft 480 kts 341°
2026-04-30 22:08 33.91095 44.52755 34001 ft 479 kts 341°
2026-04-30 22:09 33.97561 44.50823 34002 ft 479 kts 341°
2026-04-30 22:09 34.03970 44.48906 34015 ft 478 kts 341°
2026-04-30 22:10 34.10427 44.46970 34012 ft 478 kts 341°
2026-04-30 22:10 34.16886 44.45032 34006 ft 478 kts 341°
2026-04-30 22:11 34.26574 44.42118 34031 ft 478 kts 342°
2026-04-30 22:12 34.32988 44.40186 34007 ft 478 kts 342°
2026-04-30 22:12 34.39430 44.38242 34006 ft 476 kts 342°
2026-04-30 22:13 34.45854 44.36300 34007 ft 475 kts 342°
2026-04-30 22:13 34.52260 44.34360 34011 ft 474 kts 342°
2026-04-30 22:14 34.58615 44.32433 34011 ft 473 kts 342°
2026-04-30 22:14 34.64996 44.30495 34016 ft 473 kts 342°
2026-04-30 22:15 34.71378 44.28553 34023 ft 472 kts 342°
2026-04-30 22:15 34.77752 44.26611 34017 ft 472 kts 342°
2026-04-30 22:16 34.84084 44.24679 34022 ft 472 kts 342°
2026-04-30 22:17 34.96818 44.20782 34029 ft 471 kts 343°
2026-04-30 22:17 35.06330 44.17866 34022 ft 469 kts 343°
2026-04-30 22:18 35.15767 44.14964 34033 ft 467 kts 343°
2026-04-30 22:19 35.25218 44.12050 34019 ft 466 kts 343°
2026-04-30 22:20 35.34648 44.09137 34019 ft 466 kts 343°
2026-04-30 22:20 35.44040 44.06228 34035 ft 466 kts 343°
2026-04-30 22:21 35.50331 44.04275 34039 ft 466 kts 343°
2026-04-30 22:21 35.56627 44.02318 34043 ft 467 kts 343°
2026-04-30 22:22 35.62920 44.00359 34036 ft 467 kts 343°
2026-04-30 22:22 35.69111 43.98428 34038 ft 466 kts 343°
2026-04-30 22:23 35.75396 43.96465 34053 ft 466 kts 343°
2026-04-30 22:23 35.81681 43.94499 34043 ft 466 kts 343°
2026-04-30 22:24 35.87958 43.92532 34049 ft 465 kts 343°
2026-04-30 22:24 35.94179 43.90579 34043 ft 464 kts 343°
2026-04-30 22:25 36.00428 43.88615 34048 ft 463 kts 343°
2026-04-30 22:25 36.06668 43.86649 34051 ft 462 kts 343°
2026-04-30 22:26 36.15968 43.83714 34046 ft 461 kts 343°
2026-04-30 22:27 36.22184 43.81748 34054 ft 461 kts 343°
2026-04-30 22:27 36.31335 43.78233 34051 ft 458 kts 335°
2026-04-30 22:28 36.40121 43.73597 34050 ft 457 kts 335°
2026-04-30 22:29 36.51818 43.67491 34051 ft 457 kts 335°
2026-04-30 22:31 36.72277 43.56818 34059 ft 456 kts 335°
2026-04-30 22:32 36.86740 43.48856 34072 ft 453 kts 334°
2026-04-30 22:33 37.01053 43.40828 34084 ft 451 kts 334°
2026-04-30 22:35 37.15303 43.32823 34097 ft 449 kts 334°
2026-04-30 22:36 37.29541 43.24790 34106 ft 448 kts 334°
2026-04-30 22:37 37.36687 43.17614 34112 ft 442 kts 306°
2026-04-30 22:37 37.38298 43.14339 34110 ft 440 kts 298°
2026-04-30 22:38 37.43968 43.00673 34122 ft 444 kts 298°
2026-04-30 22:39 37.48290 42.90431 34108 ft 445 kts 298°
2026-04-30 22:40 37.56969 42.69862 34105 ft 444 kts 297°
2026-04-30 22:41 37.64199 42.52710 34094 ft 442 kts 297°
2026-04-30 22:43 37.72815 42.32196 34097 ft 442 kts 297°
2026-04-30 22:44 37.78551 42.18462 34087 ft 442 kts 297°
2026-04-30 22:45 37.87085 41.97918 34102 ft 443 kts 297°
2026-04-30 22:47 37.97577 41.78812 34088 ft 445 kts 310°
2026-04-30 22:48 38.05811 41.67063 34088 ft 446 kts 310°
2026-04-30 22:49 38.18055 41.49363 34083 ft 445 kts 309°
2026-04-30 22:51 38.30224 41.31671 34089 ft 444 kts 309°
2026-04-30 22:52 38.36302 41.22800 34098 ft 443 kts 309°
2026-04-30 22:53 38.44365 41.10991 34095 ft 443 kts 309°
2026-04-30 22:53 38.50360 41.02025 34096 ft 442 kts 308°
2026-04-30 22:55 38.60127 40.87057 34095 ft 441 kts 308°
2026-04-30 22:56 38.68008 40.75069 34109 ft 438 kts 308°
2026-04-30 22:57 38.77837 40.60201 34099 ft 439 kts 308°
2026-04-30 22:58 38.85693 40.48246 34096 ft 437 kts 308°
2026-04-30 22:59 38.97376 40.30382 34106 ft 436 kts 308°